User: anonymous   Login
Location: Unspecified
(0.0000°N, 0.0000°E)
Time: 15:32:09
(UTC+00:00)
Language:

USA 8 - Orbit

View from above orbital plane
View from above orbital plane
View from above satellite
View from above satellite

Ground track
Ground track

The orbit data is extracted from the following two-line orbital elements,

1 15543U 85010B   18228.33467201 0.00000000  00000-0  00000-0 0    02
2 15543  17.2133 343.8166 0134618 333.2740  26.0596  0.99802132    05
Epoch (UTC): 16 August 2018 08:01:55
Eccentricity: 0.0134618
inclination: 17.2133°
perigee height: 35349 km
apogee height: 36488 km
right ascension of ascending node: 343.8166°
argument of perigee: 333.2740°
revolutions per day: 0.99802132
mean anomaly at epoch: 26.0596°
orbit number at epoch: 0

The dashed part of the orbit path shows where the satellite is in the earth's shadow,  

DLR